www.pogodaiklimat.ru

Погода и климат >> Архив погоды >> Россия >> Якутия >> Охотский Перевоз


ПОГОДА в Охотском Перевозе

  • Прогноз погоды в Охотском Перевозе
  • Монитор погоды в Охотском Перевозе
  • Климат города

АРХИВ ПОГОДЫ в Охотском Перевозе

Время (UTC), дата Ветер
(напр.,м/с)
 
Видим.   Явления Облачность Т
(С)
Тd
(С)
f
(%)
Тe
(С)
Тes
(С)
Комфортность P
(гПа)
Po
(гПа)
Тmin
(С)
Tmax
(С)
R
(мм)
R24
(мм)
S
(см)
21 12.10 СВ 2 10 км 6/6 1000 м
[Sc]
-6.9 -7.4 96 -11 -11 1019.0 1000.7 -6.9 16
00 13.10 С 2 4000 м слабый снег 10/10 1000 м
[Cu Sc]
-6.9 -8.2 90 -11 -11 1019.1 1000.8 -7.7
03 13.10 В 1 4000 м слабый снег 10/10 600 м
[Frnb]
-5.4 -7.2 87 -8 -8 1018.9 1000.8
06 13.10 штиль 0 20 км {снег} 10/10 1000 м
[Sc]
-3.9 -8.0 73 -5 -5 1018.4 1000.4
09 13.10 штиль 0 10 км 5/3 1000 м
[Sc Ac trans Ci fib]
-5.5 -9.3 75 -6 -6 1018.9 1000.8 -3.4 0.2
12 13.10 штиль 0 4000 м туман поземный 3/0
[Ci fib]
-11.8 -11.8 100 -12 -12 1019.8 1001.2
15 13.10 З 1 4000 м туман поземный ясно -12.9 -12.9 100 -15 -15 1019.5 1000.8
18 13.10 З 1 4000 м туман поземный ясно -13.2 -13.2 100 -16 -16 1020.0 1001.3
21 13.10 З 1 10 км 9/9 1000 м
[Sc]
-12.7 -12.7 100 -15 -15 1019.7 1001.0 -13.7 16
00 14.10 З 1 20 км 10/10 1000 м
[Sc]
-11.1 -11.1 100 -13 -13 1019.4 1000.9
03 14.10 СВ 1 20 км 10/10 1000 м
[Sc]
-7.1 -8.4 90 -10 -10 1019.5 1001.2
06 14.10 С 1 20 км 10/10 1000 м
[Sc]
-5.4 -7.2 87 -8 -8 1019.4 1001.3
09 14.10 СЗ 1 10 км 9/9 1000 м
[Sc]
-5.6 -7.0 90 -8 -8 1019.6 1001.7 -5.2
12 14.10 С 1 10 км 9/9 1000 м
[Sc]
-6.6 -7.4 94 -9 -9 1019.9 1001.7
15 14.10 С 1 10 км 9/9 1000 м
[Sc]
-7.3 -7.8 96 -10 -10 1020.0 1001.7
18 14.10 СЗ 1 10 км 9/9 1000 м
[Sc]
-7.4 -8.3 93 -10 -10 1020.0 1001.7
21 14.10 СЗ 1 10 км 9/9 1000 м
[Sc]
-8.0 -9.4 90 -10 -10 1019.9 1001.6 -8.0 16
00 15.10 штиль 0 20 км 6/6 1000 м
[Sc]
-10.5 -10.5 100 -11 -11 1020.9 1002.4
03 15.10 С 1 20 км 3/3 600 м
[Cu med, cong Ac trans]
-4.3 -8.5 72 -6 -5 1020.8 1002.6
06 15.10 СВ 2 20 км 8/8 600 м
[Frnb]
-4.2 -10.1 63 -8 -8 1020.7 1002.6
09 15.10 СВ 2 10 км 9/9 1000 м
[Sc]
-5.0 -9.5 71 -9 -9 1021.4 1003.2 -3.4
12 15.10 З 1 10 км 10/10 1000 м
[Sc]
-9.3 -12.3 79 -12 -12 1022.0 1003.5
15 15.10 С 2 10 км ясно -12.7 -14.0 90 -17 -17 1022.6 1003.8
18 15.10 С 2 10 км ясно -15.3 -15.3 100 -20 -20 1023.4 1004.5
21 15.10 СЗ 2 10 км ясно -17.9 -18.5 95 -23 -23 1023.8 1004.7 -17.9 16
00 16.10 штиль 0 20 км 9/0
[Ci fib]
-17.4 -18.0 95 -17 -17 1024.2 1005.1
03 16.10 Ю 1 20 км 6/0
[Ac As Cc]
-9.6 -12.0 83 -12 -10 1023.2 1004.7
06 16.10 Ю 1 20 км 8/0
[Ac As]
-6.3 -13.3 58 -8 -8 1022.2 1003.9
09 16.10 СЗ 1 10 км 9/0
[Ac trans Ci fib]
-9.1 -13.6 70 -11 -11 1023.2 1004.7 -5.8
12 16.10 СЗ 1 10 км 8/0
[Cs]
-10.2 -13.8 75 -12 -12 1023.9 1005.3
15 16.10 С 1 10 км 1/0
[Ci fib]
-12.3 -13.6 90 -15 -15 1024.0 1005.3
18 16.10 С 2 10 км 10/0
[Cs]
-10.6 -11.2 95 -15 -15 1024.5 1005.9
21 16.10 С 2 10 км в посл. час снег 10/0
[Cs]
-11.2 -11.8 95 -16 -16 1025.0 1006.4 -13.0 0.0 15
00 17.10 СЗ 2 4000 м слабый снег 10/0
[As op]
-11.7 -13.0 90 -16 -16 1026.6 1007.8
03 17.10 СЗ 1 4000 м слабый снег 10/0
[As op]
-11.1 -13.1 85 -13 -13 1026.9 1008.2
06 17.10 С 1 4000 м слабый снег 10/0
[As op]
-10.1 -12.9 80 -12 -12 1027.2 1008.6
09 17.10 В 1 10 км {снег} 10/0
[As op]
-10.0 -12.8 80 -12 -12 1028.1 1009.5 -9.9 0.2
12 17.10 СЗ 1 4000 м слабый снег 10/0
[As op]
-10.3 -12.3 85 -13 -13 1028.3 1009.6
15 17.10 штиль 0 4000 м слабый снег 10/0
[As op]
-10.1 -12.1 85 -10 -10 1028.6 1010.0
18 17.10 С 1 10 км {снег} 10/0
[As op]
-10.2 -11.5 90 -13 -13 1028.4 1009.8
21 17.10 ЮВ 1 4000 м слабый снег 10/0
[As op]
-10.3 -12.3 85 -13 -13 1028.3 1009.6 -10.3 0.2 15
00 18.10 штиль 0 4000 м слабый снег 10/0
[As op]
-10.3 -12.3 85 -11 -11 1028.1 1009.4
03 18.10 СЗ 1 4000 м слабый снег 10/0
[As op]
-10.0 -12.8 80 -12 -12 1027.9 1009.3
06 18.10 СЗ 1 4000 м слабый снег 10/0
[As op]
-9.6 -12.7 100 -12 -12 1027.5 1008.9
09 18.10 В 2 10 км {снег} 10/10 1000 м
[Sc]
-9.9 -13.0 78 -14 -14 1026.9 1008.3 -9.4 0.2
12 18.10 Ю 3 10 км {снег} 10/10 1000 м
[Sc]
-10.1 -13.7 75 -16 -16 1026.4 1007.8
15 18.10 ЮЗ 1 10 км 6/6 1000 м
[Sc]
-13.0 -15.0 85 -15 -15 1026.3 1007.5
18 18.10 С 1 10 км 3/3 1000 м
[Sc]
-16.4 -17.0 95 -19 -19 1026.2 1007.2
21 18.10 СЗ 1 10 км 3/0
[Ci fib]
-19.6 -20.8 90 -23 -23 1026.1 1006.8 -19.6 5
00 19.10 С 2 20 км 9/0
[Ci fib]
-17.8 -19.0 90 -23 -23 1025.6 1006.5 -20.1
03 19.10 С 2 20 км 4/0
[Ci fib]
-12.7 -15.4 80 -17 -16 1025.0 1006.2
06 19.10 СВ 2 20 км 3/0
[Ci fib]
-7.7 -14.3 59 -12 -11 1023.5 1005.1
09 19.10 СВ 2 10 км 3/0
[Ci fib]
-8.0 -13.7 64 -12 -12 1023.4 1005.0 -7.0
12 19.10 С 1 10 км ясно -14.9 -16.2 90 -17 -17 1024.9 1006.0

 

Местоположение метеостанции Охотский Перевоз (Якутия, Россия): широта 61.87 долгота 135.50 высота над уровнем моря 141 м.

В архиве по умолчанию представлена погода в Охотском Перевозе за последнюю неделю. Архивные данные за месяц целиком и за предыдущие месяцы, начиная с января 2011 года, Вы можете получить, выбрав интересующий диапазон дат из раскрывающегося списка и нажав кнопку "Ввод!".

Внимание! Время в таблицах - всемирное. Для получения местного времени необходимо прибавить поправку, которая в Охотском Перевозе равна 9 ч.

Смотрите также архив погоды в соседних городах и на ближайших метеорологических станциях:

Погода в Ытык-Кюёле (Якутия, Россия) (118 км)
Погода в Крест-Хальджае (Якутия, Россия) (120 км)
Погода в Теплом Ключе (Якутия, Россия) (121 км)
Погода в Чурапче (Якутия, Россия) (153 км)
Погода в Усть-Мае (Якутия, Россия) (179 км)
Погода в Амге (Якутия, Россия) (220 км)
Погода в Томпо (Якутия, Россия) (232 км)
Погода в Верхоянском Перевозе (Якутия, Россия) (241 км)
Погода в Восточной (Якутия, Россия) (259 км)
Погода в Югоренке (Якутия, Россия) (260 км)

Пояснения к столбцам:

Ветер - указаны скорость ветра в м/с - средняя за 10 мин, порывы в срок и между сроками (в фигурных скобках) и направление, откуда дует ветер: С - северный, СВ - северо-восточный, В - восточный, ЮВ - юго-восточный, Ю - южный, ЮЗ - юго-западный, З - западный, СЗ - северо-западный.
Видимость - горизонтальная дальность видимости в метрах или километрах. При видимости от 1 до 10 км при отсутствии осадков обычно наблюдается дымка, при ухудшении видимости до 1 км и менее - туман. В сухую погоду видимость может ухудшаться дымом, пылью или мглою.
Явления - указаны атмосферные явления, наблюдавшиеся в срок или в последний час перед сроком; фигурными скобками обозначены явления, наблюдавшиеся между сроками (за 1-3 часа до срока); квадратными скобками обозначены град или гололедные отложения с указанием их диаметра в мм.
Облачность - указаны через наклонную черту общая и нижняя облачность в баллах и высота нижней границы облаков в метрах; квадратными скобками обозначены формы облаков: Ci - перистые, Cs - перисто-слоистые, Cc - перисто-кучевые, Ac - высококучевые, As - высокослоистые, Sc - слоисто-кучевые, Ns - слоисто-дождевые, Cu - кучевые, Cb - кучево-дождевые. Подробнее классификацию облаков см. в Атласе облаков (PDF).
T - Температура воздуха - температура, измеренная на высоте 2 м над землей.
Td - Температура точки росы - температура, при понижении до которой содержащийся в воздухе водяной пар достигнет насыщения.
f - Относительная влажность воздуха - влажноcть воздуха, измеренная на высоте 2 м над землей.
Te - Эффективная температура - температура, которую ощущает одетый по сезону человек в тени. Характеристика душности погоды. При расчете учитывается влияние влажности воздуха и скорости ветра на теплоощущения человека.
Tes - Эффективная температура на солнце - температура, которую ощущает человек, с поправкой на солнечный нагрев. Характеристика знойности погоды. Зависит от высоты солнца над горизонтом, облачности и скорости ветра. Ночью, в пасмурную погоду, а также при ветре 12 м/с и более поправка равна нулю.
P - Атмосферное давление - приведенное к уровню моря атмосферное давление.
Po - Атмосферное давление - измеренное на уровне метеостанции атмосферное давление.
Tmin - Минимальная температура - минимум температуры воздуха на высоте 2 м над землей.
Tmax - Максимальная температура - максимум температуры воздуха на высоте 2 м над землей.
R - Количество осадков - Количество выпавших осадков за период времени, мм. При наведении курсора мыши на число - период времени, за который выпало указанное количество осадков.
R24 - Количество осадков - Количество выпавших осадков за 24 часа, мм.
S - Снежный покров - Высота снежного покрова, см. При наведении курсора мыши на число - состояние снежного покрова и степень покрытия местности в баллах.